Location: D�derode
(51.8092°N, 10.1065°E)
Time: 07:04:27
(UTC+00:00)

Cosmos 371 Rocket - Pass Details

Date: 01 December 2020
Orbit: 685 x 698 km, 74.0° (Epoch: 24 January)

Event Time Altitude Azimuth Distance (km) Brightness Sun altitude
Rises 18:21:24 0° 332° (NNW) 3,094 7.0 -28.2°
Reaches altitude 10° 18:23:45 10° 329° (NNW) 2,171 6.2 -28.5°
Enters shadow 18:28:00 56° 284° (WNW) 830 3.8 -29.2°
